Time,TemperatureF,DewpointF,PressureIn,WindDirection,WindDirectionDegrees,WindSpeedMPH,WindSpeedGustMPH,Humidity,HourlyPrecipIn,Conditions,Clouds,dailyrainin,SoftwareType,DateUTC
2013-09-22 00:02:00,63.9,62.7,29.68,NNW,327,0.0,6.0,96,0.00,,,0.00,WUHU216DAVISVP2,2013-09-22 04:02:00,
2013-09-22 00:07:00,63.9,62.7,29.68,NW,326,0.0,6.0,96,0.00,,,0.00,WUHU216DAVISVP2,2013-09-22 04:07:00,
2013-09-22 00:12:00,63.9,62.7,29.68,SW,231,0.0,6.0,96,0.00,,,0.00,WUHU216DAVISVP2,2013-09-22 04:12:00,
2013-09-22 00:17:00,63.8,62.9,29.68,SW,230,0.0,6.0,97,0.00,,,0.00,WUHU216DAVISVP2,2013-09-22 04:17:00,
2013-09-22 00:22:00,63.8,62.9,29.68,SW,230,0.0,2.0,97,0.01,,,0.01,WUHU216DAVISVP2,2013-09-22 04:22:00,
2013-09-22 00:27:00,63.8,62.9,29.68,SW,230,0.0,1.0,97,0.01,,,0.01,WUHU216DAVISVP2,2013-09-22 04:27:00,
2013-09-22 00:32:00,63.8,62.9,29.68,SW,230,0.0,1.0,97,0.01,,,0.01,WUHU216DAVISVP2,2013-09-22 04:32:00,
2013-09-22 00:37:00,63.8,62.9,29.68,SW,230,0.0,1.0,97,0.01,,,0.01,WUHU216DAVISVP2,2013-09-22 04:37:00,
2013-09-22 00:42:00,63.8,62.9,29.68,SW,230,0.0,0.0,97,0.01,,,0.01,WUHU216DAVISVP2,2013-09-22 04:42:00,
2013-09-22 00:47:00,63.8,62.9,29.69,SW,231,0.0,0.0,97,0.01,,,0.01,WUHU216DAVISVP2,2013-09-22 04:47:00,
2013-09-22 00:52:00,63.8,62.9,29.68,SW,230,0.0,0.0,97,0.01,,,0.01,WUHU216DAVISVP2,2013-09-22 04:52:00,
2013-09-22 00:57:00,63.8,62.9,29.68,SW,230,0.0,0.0,97,0.01,,,0.01,WUHU216DAVISVP2,2013-09-22 04:57:00,
2013-09-22 01:02:00,63.8,62.9,29.68,SW,231,0.0,0.0,97,0.01,,,0.01,WUHU216DAVISVP2,2013-09-22 05:02:00,
2013-09-22 01:07:00,63.8,62.9,29.68,WSW,251,0.0,1.0,97,0.01,,,0.01,WUHU216DAVISVP2,2013-09-22 05:07:00,
2013-09-22 01:12:00,63.8,62.9,29.68,WSW,251,0.0,1.0,97,0.01,,,0.01,WUHU216DAVISVP2,2013-09-22 05:12:00,
2013-09-22 01:17:00,63.8,62.9,29.69,WSW,251,0.0,1.0,97,0.01,,,0.01,WUHU216DAVISVP2,2013-09-22 05:17:00,
2013-09-22 01:22:00,63.9,63.0,29.68,WSW,251,0.0,0.0,97,0.00,,,0.01,WUHU216DAVISVP2,2013-09-22 05:22:00,
2013-09-22 01:27:00,63.9,63.0,29.69,WSW,251,0.0,0.0,97,0.00,,,0.01,WUHU216DAVISVP2,2013-09-22 05:27:00,
2013-09-22 01:32:00,63.8,62.9,29.68,WSW,251,0.0,0.0,97,0.00,,,0.01,WUHU216DAVISVP2,2013-09-22 05:32:00,
2013-09-22 01:37:00,63.8,62.9,29.68,WSW,251,0.0,0.0,97,0.00,,,0.01,WUHU216DAVISVP2,2013-09-22 05:37:00,
2013-09-22 01:42:00,63.8,62.9,29.68,WSW,251,0.0,0.0,97,0.00,,,0.01,WUHU216DAVISVP2,2013-09-22 05:42:00,
2013-09-22 01:47:00,63.8,62.9,29.68,WSW,251,0.0,0.0,97,0.00,,,0.01,WUHU216DAVISVP2,2013-09-22 05:47:00,
2013-09-22 01:52:00,63.7,62.8,29.68,West,263,0.0,0.0,97,0.00,,,0.01,WUHU216DAVISVP2,2013-09-22 05:52:00,
2013-09-22 01:57:00,63.7,62.8,29.68,West,263,0.0,1.0,97,0.00,,,0.01,WUHU216DAVISVP2,2013-09-22 05:57:00,
2013-09-22 02:02:00,63.6,62.7,29.68,West,263,0.0,1.0,97,0.01,,,0.02,WUHU216DAVISVP2,2013-09-22 06:02:00,
2013-09-22 02:07:00,63.6,62.7,29.69,SW,235,0.0,1.0,97,0.01,,,0.02,WUHU216DAVISVP2,2013-09-22 06:07:00,
2013-09-22 02:12:00,63.5,62.6,29.68,SW,235,0.0,1.0,97,0.01,,,0.02,WUHU216DAVISVP2,2013-09-22 06:12:00,
2013-09-22 02:17:00,63.4,62.5,29.69,SW,235,0.0,0.0,97,0.01,,,0.02,WUHU216DAVISVP2,2013-09-22 06:17:00,
2013-09-22 02:22:00,63.4,62.5,29.68,SW,233,0.0,0.0,97,0.01,,,0.02,WUHU216DAVISVP2,2013-09-22 06:22:00,
2013-09-22 02:27:00,63.3,62.4,29.68,SW,233,0.0,0.0,97,0.01,,,0.02,WUHU216DAVISVP2,2013-09-22 06:27:00,
2013-09-22 02:32:00,63.2,62.3,29.68,SW,233,0.0,1.0,97,0.01,,,0.02,WUHU216DAVISVP2,2013-09-22 06:32:00,
2013-09-22 02:37:00,63.2,62.3,29.68,NW,304,0.0,2.0,97,0.01,,,0.02,WUHU216DAVISVP2,2013-09-22 06:37:00,
2013-09-22 02:42:00,63.1,62.2,29.68,NW,304,0.0,2.0,97,0.01,,,0.02,WUHU216DAVISVP2,2013-09-22 06:42:00,
2013-09-22 02:47:00,63.1,62.2,29.68,WSW,243,0.0,2.0,97,0.01,,,0.02,WUHU216DAVISVP2,2013-09-22 06:47:00,
2013-09-22 02:52:00,63.2,62.3,29.69,NNW,330,0.0,2.0,97,0.01,,,0.02,WUHU216DAVISVP2,2013-09-22 06:52:00,
2013-09-22 02:57:00,63.2,62.3,29.69,NNW,330,0.0,2.0,97,0.01,,,0.02,WUHU216DAVISVP2,2013-09-22 06:57:00,
2013-09-22 03:02:00,63.2,62.3,29.69,SSW,196,0.0,2.0,97,0.00,,,0.02,WUHU216DAVISVP2,2013-09-22 07:02:00,
2013-09-22 03:07:00,63.1,62.2,29.69,SSW,196,0.0,2.0,97,0.00,,,0.02,WUHU216DAVISVP2,2013-09-22 07:07:00,
2013-09-22 03:12:00,63.0,62.1,29.69,West,261,2.0,2.0,97,0.00,,,0.02,WUHU216DAVISVP2,2013-09-22 07:12:00,
2013-09-22 03:17:00,63.0,62.1,29.69,West,261,0.0,2.0,97,0.00,,,0.02,WUHU216DAVISVP2,2013-09-22 07:17:00,
2013-09-22 03:22:00,62.9,62.0,29.69,WSW,255,1.0,2.0,97,0.00,,,0.02,WUHU216DAVISVP2,2013-09-22 07:22:00,
2013-09-22 03:27:00,62.9,62.0,29.69,WSW,254,0.0,2.0,97,0.00,,,0.02,WUHU216DAVISVP2,2013-09-22 07:27:00,
2013-09-22 03:32:00,62.8,61.9,29.69,SW,224,0.0,2.0,97,0.00,,,0.02,WUHU216DAVISVP2,2013-09-22 07:32:00,
2013-09-22 03:37:00,62.8,61.9,29.69,WNW,287,0.0,2.0,97,0.00,,,0.02,WUHU216DAVISVP2,2013-09-22 07:37:00,
2013-09-22 03:42:00,62.7,61.8,29.70,WNW,287,0.0,2.0,97,0.00,,,0.02,WUHU216DAVISVP2,2013-09-22 07:42:00,
2013-09-22 03:47:00,62.7,61.8,29.70,WNW,286,0.0,2.0,97,0.00,,,0.02,WUHU216DAVISVP2,2013-09-22 07:47:00,
2013-09-22 03:52:00,62.7,61.8,29.70,West,267,0.0,1.0,97,0.00,,,0.02,WUHU216DAVISVP2,2013-09-22 07:52:00,
2013-09-22 03:57:00,62.6,61.7,29.69,West,267,0.0,1.0,97,0.00,,,0.02,WUHU216DAVISVP2,2013-09-22 07:57:00,
2013-09-22 04:02:00,62.6,61.7,29.70,West,267,0.0,1.0,97,0.00,,,0.02,WUHU216DAVISVP2,2013-09-22 08:02:00,
2013-09-22 04:07:00,62.4,61.5,29.70,West,267,0.0,1.0,97,0.00,,,0.02,WUHU216DAVISVP2,2013-09-22 08:07:00,
2013-09-22 04:12:00,62.3,61.4,29.70,West,267,0.0,0.0,97,0.00,,,0.02,WUHU216DAVISVP2,2013-09-22 08:12:00,
2013-09-22 04:17:00,62.3,61.4,29.69,NW,310,0.0,3.0,97,0.00,,,0.02,WUHU216DAVISVP2,2013-09-22 08:17:00,
2013-09-22 04:22:00,62.2,61.3,29.69,NW,310,0.0,3.0,97,0.00,,,0.02,WUHU216DAVISVP2,2013-09-22 08:22:00,
2013-09-22 04:27:00,62.1,61.2,29.70,NW,310,0.0,3.0,97,0.00,,,0.02,WUHU216DAVISVP2,2013-09-22 08:27:00,
2013-09-22 04:32:00,62.0,61.1,29.70,NW,323,0.0,3.0,97,0.00,,,0.02,WUHU216DAVISVP2,2013-09-22 08:32:00,
2013-09-22 04:37:00,61.9,61.0,29.70,NW,324,0.0,1.0,97,0.00,,,0.02,WUHU216DAVISVP2,2013-09-22 08:37:00,
2013-09-22 04:42:00,61.8,60.9,29.70,NW,324,0.0,1.0,97,0.00,,,0.02,WUHU216DAVISVP2,2013-09-22 08:42:00,
2013-09-22 04:47:00,61.7,60.8,29.70,NW,324,0.0,1.0,97,0.00,,,0.02,WUHU216DAVISVP2,2013-09-22 08:47:00,
2013-09-22 04:52:00,61.8,60.9,29.70,WNW,299,1.0,2.0,97,0.00,,,0.02,WUHU216DAVISVP2,2013-09-22 08:52:00,
2013-09-22 04:57:00,61.7,60.8,29.71,NNW,336,0.0,4.0,97,0.01,,,0.03,WUHU216DAVISVP2,2013-09-22 08:57:00,
2013-09-22 05:02:00,61.7,60.8,29.70,WNW,297,0.0,4.0,97,0.01,,,0.03,WUHU216DAVISVP2,2013-09-22 09:02:00,
2013-09-22 05:07:00,61.6,60.7,29.71,NW,317,0.0,4.0,97,0.01,,,0.03,WUHU216DAVISVP2,2013-09-22 09:07:00,
2013-09-22 05:12:00,61.5,60.6,29.71,NNW,337,0.0,4.0,97,0.01,,,0.03,WUHU216DAVISVP2,2013-09-22 09:12:00,
2013-09-22 05:17:00,61.3,60.4,29.71,NNW,337,0.0,4.0,97,0.01,,,0.03,WUHU216DAVISVP2,2013-09-22 09:17:00,
2013-09-22 05:22:00,61.2,60.3,29.71,NNW,337,0.0,3.0,97,0.01,,,0.03,WUHU216DAVISVP2,2013-09-22 09:22:00,
2013-09-22 05:27:00,61.1,60.2,29.71,NNW,337,0.0,0.0,97,0.01,,,0.03,WUHU216DAVISVP2,2013-09-22 09:27:00,
2013-09-22 05:32:00,60.9,60.0,29.71,NNW,337,0.0,0.0,97,0.01,,,0.03,WUHU216DAVISVP2,2013-09-22 09:32:00,
2013-09-22 05:37:00,60.8,59.9,29.72,NNW,337,0.0,1.0,97,0.01,,,0.03,WUHU216DAVISVP2,2013-09-22 09:37:00,
2013-09-22 05:42:00,60.7,59.8,29.72,WNW,289,0.0,1.0,97,0.01,,,0.03,WUHU216DAVISVP2,2013-09-22 09:42:00,
2013-09-22 05:47:00,60.6,59.7,29.72,WNW,291,0.0,1.0,97,0.01,,,0.03,WUHU216DAVISVP2,2013-09-22 09:47:00,
2013-09-22 05:52:00,60.4,59.5,29.72,WNW,291,0.0,1.0,97,0.01,,,0.03,WUHU216DAVISVP2,2013-09-22 09:52:00,
2013-09-22 05:57:00,60.4,59.5,29.72,WSW,251,2.0,2.0,97,0.00,,,0.03,WUHU216DAVISVP2,2013-09-22 09:57:00,
2013-09-22 06:02:00,60.3,59.4,29.72,WSW,254,0.0,2.0,97,0.00,,,0.03,WUHU216DAVISVP2,2013-09-22 10:02:00,
2013-09-22 06:07:00,60.3,59.4,29.73,WSW,254,0.0,2.0,97,0.00,,,0.03,WUHU216DAVISVP2,2013-09-22 10:07:00,
2013-09-22 06:12:00,60.2,59.3,29.73,WSW,254,0.0,2.0,97,0.00,,,0.03,WUHU216DAVISVP2,2013-09-22 10:12:00,
2013-09-22 06:17:00,60.2,59.3,29.73,WSW,254,0.0,1.0,97,0.00,,,0.03,WUHU216DAVISVP2,2013-09-22 10:17:00,
2013-09-22 06:22:00,60.3,59.4,29.73,NW,319,0.0,4.0,97,0.00,,,0.03,WUHU216DAVISVP2,2013-09-22 10:22:00,
2013-09-22 06:27:00,60.3,59.4,29.73,NNE,31,0.0,4.0,97,0.00,,,0.03,WUHU216DAVISVP2,2013-09-22 10:27:00,
2013-09-22 06:32:00,60.2,59.3,29.73,NNE,31,0.0,4.0,97,0.00,,,0.03,WUHU216DAVISVP2,2013-09-22 10:32:00,
2013-09-22 06:37:00,60.2,59.3,29.73,NW,314,0.0,4.0,97,0.00,,,0.03,WUHU216DAVISVP2,2013-09-22 10:37:00,
2013-09-22 06:42:00,60.0,59.1,29.74,NW,314,0.0,4.0,97,0.00,,,0.03,WUHU216DAVISVP2,2013-09-22 10:42:00,
2013-09-22 06:47:00,59.9,59.0,29.74,NW,314,0.0,4.0,97,0.00,,,0.03,WUHU216DAVISVP2,2013-09-22 10:47:00,
2013-09-22 06:52:00,59.8,58.9,29.74,West,280,0.0,4.0,97,0.00,,,0.03,WUHU216DAVISVP2,2013-09-22 10:52:00,
2013-09-22 07:04:00,59.8,58.9,29.74,WNW,301,0.0,2.0,97,0.00,,,0.03,WUHU216DAVISVP2,2013-09-22 11:04:00,
2013-09-22 07:09:00,59.8,59.2,29.74,NW,318,0.0,3.0,98,0.00,,,0.03,WUHU216DAVISVP2,2013-09-22 11:09:00,
2013-09-22 07:14:00,59.9,59.0,29.74,NNW,335,0.0,6.0,97,0.00,,,0.03,WUHU216DAVISVP2,2013-09-22 11:14:00,
2013-09-22 07:19:00,59.8,58.9,29.74,West,270,0.0,6.0,97,0.00,,,0.03,WUHU216DAVISVP2,2013-09-22 11:19:00,
2013-09-22 07:24:00,59.8,58.9,29.75,NNW,331,0.0,6.0,97,0.00,,,0.03,WUHU216DAVISVP2,2013-09-22 11:24:00,
2013-09-22 07:29:00,59.8,58.9,29.75,NNW,335,0.0,6.0,97,0.00,,,0.03,WUHU216DAVISVP2,2013-09-22 11:29:00,
2013-09-22 07:34:00,59.8,58.9,29.75,NNW,337,0.0,5.0,97,0.00,,,0.03,WUHU216DAVISVP2,2013-09-22 11:34:00,
2013-09-22 07:39:00,59.8,58.9,29.75,NNW,347,0.0,5.0,97,0.00,,,0.03,WUHU216DAVISVP2,2013-09-22 11:39:00,
2013-09-22 07:44:00,59.9,59.0,29.75,NW,312,1.0,5.0,97,0.00,,,0.03,WUHU216DAVISVP2,2013-09-22 11:44:00,
2013-09-22 07:49:00,60.0,59.1,29.75,NW,317,4.0,5.0,97,0.00,,,0.03,WUHU216DAVISVP2,2013-09-22 11:49:00,
2013-09-22 07:54:00,60.1,59.2,29.76,NW,311,3.0,6.0,97,0.00,,,0.03,WUHU216DAVISVP2,2013-09-22 11:54:00,
2013-09-22 07:59:00,60.2,59.0,29.76,WNW,301,0.0,6.0,96,0.00,,,0.03,WUHU216DAVISVP2,2013-09-22 11:59:00,
2013-09-22 08:04:00,60.3,59.1,29.76,NW,308,0.0,6.0,96,0.00,,,0.03,WUHU216DAVISVP2,2013-09-22 12:04:00,
2013-09-22 08:09:00,60.4,59.3,29.76,NW,307,1.0,6.0,96,0.01,,,0.04,WUHU216DAVISVP2,2013-09-22 12:09:00,
2013-09-22 08:14:00,60.6,59.5,29.76,NNW,348,1.0,6.0,96,0.01,,,0.04,WUHU216DAVISVP2,2013-09-22 12:14:00,
2013-09-22 08:19:00,60.7,59.2,29.76,NW,305,4.0,6.0,95,0.01,,,0.04,WUHU216DAVISVP2,2013-09-22 12:19:00,
2013-09-22 08:24:00,60.9,59.4,29.76,NNW,334,1.0,6.0,95,0.01,,,0.04,WUHU216DAVISVP2,2013-09-22 12:24:00,
2013-09-22 08:29:00,61.1,59.3,29.76,NW,320,3.0,6.0,94,0.01,,,0.04,WUHU216DAVISVP2,2013-09-22 12:29:00,
2013-09-22 08:34:00,61.3,59.5,29.77,North,354,2.0,6.0,94,0.01,,,0.04,WUHU216DAVISVP2,2013-09-22 12:34:00,
2013-09-22 08:39:00,61.4,59.4,29.77,NW,314,1.0,6.0,93,0.01,,,0.04,WUHU216DAVISVP2,2013-09-22 12:39:00,
2013-09-22 08:44:00,61.7,59.6,29.77,WNW,303,3.0,5.0,93,0.01,,,0.04,WUHU216DAVISVP2,2013-09-22 12:44:00,
2013-09-22 08:49:00,62.0,60.0,29.77,West,263,2.0,5.0,93,0.01,,,0.04,WUHU216DAVISVP2,2013-09-22 12:49:00,
2013-09-22 08:54:00,62.2,59.5,29.77,North,359,0.0,5.0,91,0.01,,,0.04,WUHU216DAVISVP2,2013-09-22 12:54:00,
2013-09-22 08:59:00,62.5,59.5,29.78,NW,324,4.0,5.0,90,0.01,,,0.04,WUHU216DAVISVP2,2013-09-22 12:59:00,
2013-09-22 09:04:00,62.8,59.5,29.78,North,354,3.0,6.0,89,0.01,,,0.04,WUHU216DAVISVP2,2013-09-22 13:04:00,
2013-09-22 09:09:00,63.0,59.7,29.78,WNW,300,3.0,6.0,89,0.00,,,0.04,WUHU216DAVISVP2,2013-09-22 13:09:00,
2013-09-22 09:14:00,63.2,59.6,29.78,NNW,329,2.0,6.0,88,0.00,,,0.04,WUHU216DAVISVP2,2013-09-22 13:14:00,
2013-09-22 09:19:00,63.4,59.5,29.78,NNW,332,6.0,7.0,87,0.00,,,0.04,WUHU216DAVISVP2,2013-09-22 13:19:00,
2013-09-22 09:24:00,63.6,59.7,29.78,NW,317,0.0,9.0,87,0.00,,,0.04,WUHU216DAVISVP2,2013-09-22 13:24:00,
2013-09-22 09:29:00,63.7,59.4,29.78,NNW,341,7.0,9.0,86,0.00,,,0.04,WUHU216DAVISVP2,2013-09-22 13:29:00,
2013-09-22 09:34:00,63.8,59.2,29.79,North,359,5.0,9.0,85,0.00,,,0.04,WUHU216DAVISVP2,2013-09-22 13:34:00,
2013-09-22 09:39:00,64.0,59.4,29.79,NW,326,4.0,10.0,85,0.00,,,0.04,WUHU216DAVISVP2,2013-09-22 13:39:00,
2013-09-22 09:44:00,64.3,59.4,29.79,NNW,335,3.0,10.0,84,0.00,,,0.04,WUHU216DAVISVP2,2013-09-22 13:44:00,
2013-09-22 09:49:00,64.6,59.7,29.79,NNE,23,2.0,10.0,84,0.00,,,0.04,WUHU216DAVISVP2,2013-09-22 13:49:00,
2013-09-22 09:54:00,64.9,59.6,29.79,NW,314,3.0,10.0,83,0.00,,,0.04,WUHU216DAVISVP2,2013-09-22 13:54:00,
2013-09-22 09:59:00,65.0,59.4,29.79,NNW,338,2.0,9.0,82,0.00,,,0.04,WUHU216DAVISVP2,2013-09-22 13:59:00,
2013-09-22 10:04:00,65.3,60.0,29.80,NW,323,2.0,9.0,83,0.00,,,0.04,WUHU216DAVISVP2,2013-09-22 14:04:00,
2013-09-22 10:09:00,65.4,59.1,29.79,NNE,33,4.0,10.0,80,0.00,,,0.04,WUHU216DAVISVP2,2013-09-22 14:09:00,
2013-09-22 10:14:00,65.6,58.6,29.79,NNW,343,6.0,10.0,78,0.00,,,0.04,WUHU216DAVISVP2,2013-09-22 14:14:00,
2013-09-22 10:19:00,65.8,58.5,29.79,NNW,337,4.0,10.0,77,0.00,,,0.04,WUHU216DAVISVP2,2013-09-22 14:19:00,
2013-09-22 10:24:00,66.1,58.8,29.80,NNW,330,8.0,10.0,77,0.00,,,0.04,WUHU216DAVISVP2,2013-09-22 14:24:00,
2013-09-22 10:29:00,66.1,59.1,29.80,North,4,3.0,9.0,78,0.00,,,0.04,WUHU216DAVISVP2,2013-09-22 14:29:00,
2013-09-22 10:34:00,66.3,59.0,29.79,NNW,345,4.0,10.0,77,0.00,,,0.04,WUHU216DAVISVP2,2013-09-22 14:34:00,
2013-09-22 10:39:00,66.5,59.2,29.79,NNW,336,4.0,10.0,77,0.00,,,0.04,WUHU216DAVISVP2,2013-09-22 14:39:00,
2013-09-22 10:44:00,66.6,59.3,29.80,NW,313,3.0,10.0,77,0.00,,,0.04,WUHU216DAVISVP2,2013-09-22 14:44:00,
2013-09-22 10:49:00,66.9,59.2,29.80,NW,317,2.0,10.0,76,0.00,,,0.04,WUHU216DAVISVP2,2013-09-22 14:49:00,
2013-09-22 10:54:00,67.3,59.5,29.79,West,263,2.0,8.0,76,0.00,,,0.04,WUHU216DAVISVP2,2013-09-22 14:54:00,
2013-09-22 10:59:00,67.9,59.1,29.79,WNW,298,3.0,7.0,73,0.00,,,0.04,WUHU216DAVISVP2,2013-09-22 14:59:00,
2013-09-22 11:04:00,68.0,59.2,29.79,NNE,16,3.0,6.0,73,0.00,,,0.04,WUHU216DAVISVP2,2013-09-22 15:04:00,
2013-09-22 11:09:00,68.2,57.4,29.79,NNE,30,3.0,6.0,68,0.00,,,0.04,WUHU216DAVISVP2,2013-09-22 15:09:00,
2013-09-22 11:14:00,68.4,58.0,29.79,NNW,346,2.0,6.0,69,0.00,,,0.04,WUHU216DAVISVP2,2013-09-22 15:14:00,
2013-09-22 11:19:00,68.5,56.9,29.79,NE,53,4.0,7.0,66,0.00,,,0.04,WUHU216DAVISVP2,2013-09-22 15:19:00,
2013-09-22 11:24:00,68.5,57.3,29.79,NNE,21,0.0,7.0,67,0.00,,,0.04,WUHU216DAVISVP2,2013-09-22 15:24:00,
2013-09-22 11:29:00,68.9,58.1,29.79,NW,317,4.0,7.0,68,0.00,,,0.04,WUHU216DAVISVP2,2013-09-22 15:29:00,
2013-09-22 11:34:00,68.9,57.3,29.79,NNW,340,2.0,7.0,66,0.00,,,0.04,WUHU216DAVISVP2,2013-09-22 15:34:00,
2013-09-22 11:39:00,69.2,57.5,29.79,NNW,347,2.0,7.0,66,0.00,,,0.04,WUHU216DAVISVP2,2013-09-22 15:39:00,
2013-09-22 11:44:00,69.3,55.9,29.79,North,4,3.0,8.0,62,0.01,,,0.05,WUHU216DAVISVP2,2013-09-22 15:44:00,
2013-09-22 11:49:00,69.4,55.5,29.79,NNW,339,4.0,8.0,61,0.01,,,0.05,WUHU216DAVISVP2,2013-09-22 15:49:00,
2013-09-22 11:54:00,69.2,55.8,29.79,North,4,2.0,8.0,62,0.01,,,0.05,WUHU216DAVISVP2,2013-09-22 15:54:00,
2013-09-22 11:59:00,69.5,54.7,29.79,NW,313,4.0,8.0,59,0.01,,,0.05,WUHU216DAVISVP2,2013-09-22 15:59:00,
2013-09-22 12:04:00,69.6,55.3,29.78,NW,306,4.0,8.0,60,0.01,,,0.05,WUHU216DAVISVP2,2013-09-22 16:04:00,
2013-09-22 12:09:00,70.4,56.3,29.79,NW,321,1.0,8.0,61,0.01,,,0.05,WUHU216DAVISVP2,2013-09-22 16:09:00,
2013-09-22 12:14:00,70.9,56.3,29.79,NNE,24,3.0,8.0,60,0.01,,,0.05,WUHU216DAVISVP2,2013-09-22 16:14:00,
2013-09-22 12:19:00,70.9,56.0,29.78,NE,41,0.0,8.0,59,0.01,,,0.05,WUHU216DAVISVP2,2013-09-22 16:19:00,
2013-09-22 12:24:00,70.7,56.3,29.78,NNW,332,2.0,6.0,60,0.01,,,0.05,WUHU216DAVISVP2,2013-09-22 16:24:00,
2013-09-22 12:29:00,71.0,57.1,29.79,NNW,339,0.0,8.0,61,0.01,,,0.05,WUHU216DAVISVP2,2013-09-22 16:29:00,
2013-09-22 12:34:00,71.7,56.3,29.79,NNW,347,2.0,8.0,58,0.01,,,0.05,WUHU216DAVISVP2,2013-09-22 16:34:00,
2013-09-22 12:39:00,71.3,54.4,29.79,NW,317,4.0,9.0,55,0.01,,,0.05,WUHU216DAVISVP2,2013-09-22 16:39:00,
2013-09-22 12:44:00,71.5,54.5,29.78,NNE,31,4.0,9.0,55,0.00,,,0.05,WUHU216DAVISVP2,2013-09-22 16:44:00,
2013-09-22 12:49:00,71.5,54.5,29.78,NW,322,3.0,9.0,55,0.00,,,0.05,WUHU216DAVISVP2,2013-09-22 16:49:00,
2013-09-22 12:54:00,71.5,55.6,29.78,NNE,29,3.0,9.0,57,0.00,,,0.05,WUHU216DAVISVP2,2013-09-22 16:54:00,
2013-09-22 12:59:00,71.0,53.6,29.78,NNW,345,2.0,8.0,54,0.00,,,0.05,WUHU216DAVISVP2,2013-09-22 16:59:00,
2013-09-22 13:04:00,70.9,53.9,29.78,NNW,330,2.0,8.0,55,0.00,,,0.05,WUHU216DAVISVP2,2013-09-22 17:04:00,
2013-09-22 13:09:00,71.1,54.6,29.78,NNW,333,3.0,8.0,56,0.00,,,0.05,WUHU216DAVISVP2,2013-09-22 17:09:00,
2013-09-22 13:14:00,71.3,53.3,29.78,North,359,4.0,6.0,53,0.00,,,0.05,WUHU216DAVISVP2,2013-09-22 17:14:00,
2013-09-22 13:19:00,70.9,54.1,29.78,NNW,336,4.0,6.0,55,0.00,,,0.05,WUHU216DAVISVP2,2013-09-22 17:19:00,
2013-09-22 13:24:00,71.4,53.5,29.78,WNW,294,2.0,6.0,53,0.00,,,0.05,WUHU216DAVISVP2,2013-09-22 17:24:00,
2013-09-22 13:29:00,71.8,53.3,29.78,NNW,334,1.0,9.0,52,0.00,,,0.05,WUHU216DAVISVP2,2013-09-22 17:29:00,
2013-09-22 13:34:00,71.9,53.4,29.78,NNW,348,3.0,9.0,52,0.00,,,0.05,WUHU216DAVISVP2,2013-09-22 17:34:00,
2013-09-22 13:40:00,72.0,53.5,29.78,West,262,5.0,10.0,52,0.00,,,0.05,WUHU216DAVISVP2,2013-09-22 17:40:00,
2013-09-22 13:45:00,72.1,53.1,29.78,NW,320,5.0,10.0,51,0.00,,,0.05,WUHU216DAVISVP2,2013-09-22 17:45:00,
2013-09-22 13:50:00,71.6,52.6,29.78,SW,220,0.0,10.0,51,0.00,,,0.05,WUHU216DAVISVP2,2013-09-22 17:50:00,
2013-09-22 13:55:00,71.3,53.4,29.78,North,4,2.0,10.0,53,0.00,,,0.05,WUHU216DAVISVP2,2013-09-22 17:55:00,
2013-09-22 14:00:00,71.2,54.3,29.78,NNW,332,4.0,7.0,55,0.00,,,0.05,WUHU216DAVISVP2,2013-09-22 18:00:00,
2013-09-22 14:05:00,71.2,54.3,29.78,North,359,1.0,8.0,55,0.00,,,0.05,WUHU216DAVISVP2,2013-09-22 18:05:00,
2013-09-22 14:10:00,71.4,54.0,29.78,NW,319,5.0,9.0,54,0.00,,,0.05,WUHU216DAVISVP2,2013-09-22 18:10:00,
2013-09-22 14:15:00,70.6,53.6,29.78,North,354,3.0,9.0,55,0.01,,,0.06,WUHU216DAVISVP2,2013-09-22 18:15:00,
2013-09-22 14:20:00,70.3,55.0,29.78,NNE,17,5.0,9.0,58,0.01,,,0.06,WUHU216DAVISVP2,2013-09-22 18:20:00,
2013-09-22 14:25:00,70.2,53.9,29.78,North,354,6.0,9.0,56,0.01,,,0.06,WUHU216DAVISVP2,2013-09-22 18:25:00,
2013-09-22 14:30:00,70.2,53.9,29.78,NNW,328,2.0,9.0,56,0.01,,,0.06,WUHU216DAVISVP2,2013-09-22 18:30:00,
2013-09-22 14:35:00,71.1,55.3,29.78,NW,317,1.0,7.0,57,0.01,,,0.06,WUHU216DAVISVP2,2013-09-22 18:35:00,
2013-09-22 14:40:00,72.2,54.8,29.77,NW,324,2.0,7.0,54,0.01,,,0.06,WUHU216DAVISVP2,2013-09-22 18:40:00,
2013-09-22 14:45:00,71.3,53.4,29.78,West,266,3.0,10.0,53,0.01,,,0.06,WUHU216DAVISVP2,2013-09-22 18:45:00,
2013-09-22 14:50:00,70.8,53.8,29.78,NNW,347,0.0,10.0,55,0.01,,,0.06,WUHU216DAVISVP2,2013-09-22 18:50:00,
2013-09-22 14:55:00,70.7,52.7,29.78,NNE,18,3.0,10.0,53,0.01,,,0.06,WUHU216DAVISVP2,2013-09-22 18:55:00,
2013-09-22 15:00:00,70.7,52.7,29.78,West,277,2.0,9.0,53,0.01,,,0.06,WUHU216DAVISVP2,2013-09-22 19:00:00,
2013-09-22 15:05:00,71.1,53.2,29.78,NNE,31,4.0,8.0,53,0.01,,,0.06,WUHU216DAVISVP2,2013-09-22 19:05:00,
2013-09-22 15:10:00,70.9,53.0,29.78,NW,325,3.0,8.0,53,0.01,,,0.06,WUHU216DAVISVP2,2013-09-22 19:10:00,
2013-09-22 15:15:00,71.0,53.6,29.77,NNE,18,2.0,8.0,54,0.00,,,0.06,WUHU216DAVISVP2,2013-09-22 19:15:00,
2013-09-22 15:20:00,70.9,54.1,29.78,NNW,345,5.0,8.0,55,0.00,,,0.06,WUHU216DAVISVP2,2013-09-22 19:20:00,
2013-09-22 15:25:00,71.1,53.2,29.78,North,359,4.0,10.0,53,0.00,,,0.06,WUHU216DAVISVP2,2013-09-22 19:25:00,
2013-09-22 15:30:00,71.0,53.6,29.78,NW,309,4.0,10.0,54,0.00,,,0.06,WUHU216DAVISVP2,2013-09-22 19:30:00,
2013-09-22 15:35:00,70.4,53.6,29.78,NW,322,4.0,10.0,55,0.00,,,0.06,WUHU216DAVISVP2,2013-09-22 19:35:00,
2013-09-22 15:40:00,70.2,53.9,29.78,North,10,3.0,8.0,56,0.00,,,0.06,WUHU216DAVISVP2,2013-09-22 19:40:00,
2013-09-22 15:45:00,70.1,54.8,29.77,NNW,345,2.0,8.0,58,0.00,,,0.06,WUHU216DAVISVP2,2013-09-22 19:45:00,
2013-09-22 15:50:00,70.3,54.0,29.77,NW,313,2.0,7.0,56,0.00,,,0.06,WUHU216DAVISVP2,2013-09-22 19:50:00,
2013-09-22 15:55:00,70.3,54.0,29.77,NW,317,0.0,6.0,56,0.00,,,0.06,WUHU216DAVISVP2,2013-09-22 19:55:00,
2013-09-22 16:00:00,70.5,53.7,29.77,NW,315,1.0,7.0,55,0.00,,,0.06,WUHU216DAVISVP2,2013-09-22 20:00:00,
2013-09-22 16:05:00,70.7,54.4,29.77,North,8,1.0,7.0,56,0.00,,,0.06,WUHU216DAVISVP2,2013-09-22 20:05:00,
2013-09-22 16:10:00,70.8,55.0,29.78,WNW,303,0.0,7.0,57,0.00,,,0.06,WUHU216DAVISVP2,2013-09-22 20:10:00,
2013-09-22 16:15:00,70.6,54.3,29.77,NW,314,3.0,7.0,56,0.00,,,0.06,WUHU216DAVISVP2,2013-09-22 20:15:00,
2013-09-22 16:20:00,70.4,54.1,29.78,NW,322,0.0,6.0,56,0.00,,,0.06,WUHU216DAVISVP2,2013-09-22 20:20:00,
2013-09-22 16:25:00,70.4,55.1,29.78,North,354,1.0,6.0,58,0.00,,,0.06,WUHU216DAVISVP2,2013-09-22 20:25:00,
2013-09-22 16:30:00,70.3,54.5,29.77,North,354,2.0,6.0,57,0.00,,,0.06,WUHU216DAVISVP2,2013-09-22 20:30:00,
2013-09-22 16:35:00,70.3,55.0,29.77,North,354,0.0,6.0,58,0.00,,,0.06,WUHU216DAVISVP2,2013-09-22 20:35:00,
2013-09-22 16:40:00,70.2,54.4,29.78,WNW,302,0.0,4.0,57,0.00,,,0.06,WUHU216DAVISVP2,2013-09-22 20:40:00,
2013-09-22 16:45:00,70.3,54.5,29.78,West,280,1.0,4.0,57,0.00,,,0.06,WUHU216DAVISVP2,2013-09-22 20:45:00,
2013-09-22 16:50:00,70.3,55.0,29.78,NW,322,2.0,4.0,58,0.00,,,0.06,WUHU216DAVISVP2,2013-09-22 20:50:00,
2013-09-22 16:55:00,70.5,55.2,29.78,NW,322,0.0,4.0,58,0.00,,,0.06,WUHU216DAVISVP2,2013-09-22 20:55:00,
2013-09-22 17:00:00,71.0,55.2,29.78,North,4,3.0,4.0,57,0.00,,,0.06,WUHU216DAVISVP2,2013-09-22 21:00:00,
2013-09-22 17:05:00,71.0,53.6,29.78,NW,312,1.0,4.0,54,0.00,,,0.06,WUHU216DAVISVP2,2013-09-22 21:05:00,
2013-09-22 17:10:00,70.8,55.0,29.78,NNW,347,0.0,3.0,57,0.00,,,0.06,WUHU216DAVISVP2,2013-09-22 21:10:00,
2013-09-22 17:15:00,70.7,54.9,29.78,NW,323,0.0,3.0,57,0.00,,,0.06,WUHU216DAVISVP2,2013-09-22 21:15:00,
2013-09-22 17:20:00,70.5,54.2,29.78,NNW,335,2.0,4.0,56,0.00,,,0.06,WUHU216DAVISVP2,2013-09-22 21:20:00,
2013-09-22 17:25:00,70.5,53.7,29.79,NNE,28,2.0,4.0,55,0.00,,,0.06,WUHU216DAVISVP2,2013-09-22 21:25:00,
2013-09-22 17:30:00,70.5,53.7,29.79,NNW,341,2.0,4.0,55,0.00,,,0.06,WUHU216DAVISVP2,2013-09-22 21:30:00,
2013-09-22 17:35:00,70.8,54.5,29.79,NE,45,3.0,4.0,56,0.00,,,0.06,WUHU216DAVISVP2,2013-09-22 21:35:00,
2013-09-22 17:40:00,70.8,53.5,29.79,NW,318,0.0,4.0,54,0.00,,,0.06,WUHU216DAVISVP2,2013-09-22 21:40:00,
2013-09-22 17:45:00,70.8,52.9,29.79,North,11,1.0,4.0,53,0.00,,,0.06,WUHU216DAVISVP2,2013-09-22 21:45:00,
2013-09-22 17:50:00,70.8,54.0,29.79,NNW,348,1.0,6.0,55,0.00,,,0.06,WUHU216DAVISVP2,2013-09-22 21:50:00,
2013-09-22 17:55:00,70.6,52.2,29.79,North,359,5.0,6.0,52,0.00,,,0.06,WUHU216DAVISVP2,2013-09-22 21:55:00,
2013-09-22 18:00:00,70.4,53.1,29.80,NE,37,1.0,6.0,54,0.00,,,0.06,WUHU216DAVISVP2,2013-09-22 22:00:00,
2013-09-22 18:05:00,70.1,53.3,29.80,West,274,4.0,6.0,55,0.00,,,0.06,WUHU216DAVISVP2,2013-09-22 22:05:00,
2013-09-22 18:10:00,69.8,53.0,29.80,NW,306,0.0,6.0,55,0.00,,,0.06,WUHU216DAVISVP2,2013-09-22 22:10:00,
2013-09-22 18:15:00,69.5,53.3,29.80,WNW,289,5.0,6.0,56,0.00,,,0.06,WUHU216DAVISVP2,2013-09-22 22:15:00,
2013-09-22 18:20:00,69.3,53.6,29.80,NW,323,1.0,6.0,57,0.00,,,0.06,WUHU216DAVISVP2,2013-09-22 22:20:00,
2013-09-22 18:25:00,69.2,53.5,29.80,NNW,341,2.0,6.0,57,0.00,,,0.06,WUHU216DAVISVP2,2013-09-22 22:25:00,
2013-09-22 18:30:00,69.0,53.8,29.80,North,349,1.0,5.0,58,0.00,,,0.06,WUHU216DAVISVP2,2013-09-22 22:30:00,
2013-09-22 18:35:00,68.8,53.1,29.80,WNW,303,2.0,4.0,57,0.00,,,0.06,WUHU216DAVISVP2,2013-09-22 22:35:00,
2013-09-22 18:40:00,68.6,52.9,29.80,NNW,344,2.0,4.0,57,0.00,,,0.06,WUHU216DAVISVP2,2013-09-22 22:40:00,
2013-09-22 18:45:00,68.4,53.2,29.80,NNW,330,4.0,4.0,58,0.00,,,0.06,WUHU216DAVISVP2,2013-09-22 22:45:00,
2013-09-22 18:50:00,68.2,53.5,29.80,North,359,4.0,5.0,59,0.00,,,0.06,WUHU216DAVISVP2,2013-09-22 22:50:00,
2013-09-22 18:55:00,68.1,53.9,29.80,North,354,0.0,7.0,60,0.00,,,0.06,WUHU216DAVISVP2,2013-09-22 22:55:00,
2013-09-22 19:00:00,68.0,53.8,29.81,NW,320,2.0,7.0,60,0.00,,,0.06,WUHU216DAVISVP2,2013-09-22 23:00:00,
2013-09-22 19:05:00,67.9,54.6,29.81,NNW,346,1.0,7.0,62,0.00,,,0.06,WUHU216DAVISVP2,2013-09-22 23:05:00,
2013-09-22 19:10:00,67.8,53.6,29.81,NNW,347,2.0,6.0,60,0.00,,,0.06,WUHU216DAVISVP2,2013-09-22 23:10:00,
2013-09-22 19:15:00,67.7,53.5,29.81,NNW,339,1.0,5.0,60,0.00,,,0.06,WUHU216DAVISVP2,2013-09-22 23:15:00,
2013-09-22 19:20:00,67.7,53.0,29.82,NW,323,2.0,5.0,59,0.00,,,0.06,WUHU216DAVISVP2,2013-09-22 23:20:00,
2013-09-22 19:25:00,67.6,52.9,29.82,NE,35,3.0,5.0,59,0.00,,,0.06,WUHU216DAVISVP2,2013-09-22 23:25:00,
2013-09-22 19:30:00,67.4,52.7,29.82,NW,314,2.0,5.0,59,0.00,,,0.06,WUHU216DAVISVP2,2013-09-22 23:30:00,
2013-09-22 19:35:00,67.2,52.5,29.82,WNW,282,3.0,5.0,59,0.00,,,0.06,WUHU216DAVISVP2,2013-09-22 23:35:00,
2013-09-22 19:40:00,67.0,52.8,29.82,NNW,336,1.0,5.0,60,0.00,,,0.06,WUHU216DAVISVP2,2013-09-22 23:40:00,
2013-09-22 19:45:00,66.7,52.5,29.83,NW,314,5.0,6.0,60,0.00,,,0.06,WUHU216DAVISVP2,2013-09-22 23:45:00,
2013-09-22 19:50:00,66.5,52.3,29.83,NNW,341,3.0,6.0,60,0.00,,,0.06,WUHU216DAVISVP2,2013-09-22 23:50:00,
2013-09-22 19:55:00,66.3,52.2,29.83,NW,316,1.0,6.0,60,0.00,,,0.06,WUHU216DAVISVP2,2013-09-22 23:55:00,
2013-09-22 20:00:00,66.2,52.1,29.83,NNW,328,2.0,6.0,60,0.00,,,0.06,WUHU216DAVISVP2,2013-09-23 00:00:00,
2013-09-22 20:05:00,65.9,52.2,29.83,NW,326,2.0,6.0,61,0.00,,,0.06,WUHU216DAVISVP2,2013-09-23 00:05:00,
2013-09-22 20:10:00,65.7,52.0,29.84,NNW,330,3.0,5.0,61,0.00,,,0.06,WUHU216DAVISVP2,2013-09-23 00:10:00,
2013-09-22 20:15:00,65.4,52.2,29.84,NW,324,1.0,5.0,62,0.00,,,0.06,WUHU216DAVISVP2,2013-09-23 00:15:00,
2013-09-22 20:20:00,65.2,52.0,29.84,NW,318,1.0,5.0,62,0.00,,,0.06,WUHU216DAVISVP2,2013-09-23 00:20:00,
2013-09-22 20:25:00,65.0,51.8,29.84,NNW,346,2.0,5.0,62,0.00,,,0.06,WUHU216DAVISVP2,2013-09-23 00:25:00,
2013-09-22 20:31:00,64.8,51.6,29.85,North,354,1.0,5.0,62,0.00,,,0.06,WUHU216DAVISVP2,2013-09-23 00:31:00,
2013-09-22 20:36:00,64.6,51.3,29.85,North,354,3.0,5.0,62,0.00,,,0.06,WUHU216DAVISVP2,2013-09-23 00:36:00,
2013-09-22 20:41:00,64.5,51.4,29.85,North,354,1.0,6.0,62,0.00,,,0.06,WUHU216DAVISVP2,2013-09-23 00:41:00,
2013-09-22 20:46:00,64.3,51.6,29.85,NW,322,2.0,6.0,63,0.00,,,0.06,WUHU216DAVISVP2,2013-09-23 00:46:00,
2013-09-22 20:51:00,64.2,51.1,29.85,NW,322,3.0,6.0,62,0.01,,,0.07,WUHU216DAVISVP2,2013-09-23 00:51:00,
2013-09-22 20:56:00,64.2,51.5,29.85,North,349,3.0,6.0,63,0.01,,,0.07,WUHU216DAVISVP2,2013-09-23 00:56:00,
2013-09-22 21:01:00,64.0,51.1,29.85,North,354,1.0,6.0,63,0.01,,,0.07,WUHU216DAVISVP2,2013-09-23 01:01:00,
2013-09-22 21:06:00,63.9,51.1,29.86,North,359,3.0,6.0,63,0.01,,,0.07,WUHU216DAVISVP2,2013-09-23 01:06:00,
2013-09-22 21:11:00,63.7,51.0,29.86,NW,308,1.0,6.0,63,0.01,,,0.07,WUHU216DAVISVP2,2013-09-23 01:11:00,
2013-09-22 21:16:00,63.7,51.0,29.86,NNW,335,2.0,6.0,63,0.01,,,0.07,WUHU216DAVISVP2,2013-09-23 01:16:00,
2013-09-22 21:21:00,63.6,50.9,29.86,North,349,2.0,6.0,63,0.01,,,0.07,WUHU216DAVISVP2,2013-09-23 01:21:00,
2013-09-22 21:26:00,63.6,50.9,29.86,North,354,3.0,7.0,63,0.01,,,0.07,WUHU216DAVISVP2,2013-09-23 01:26:00,
2013-09-22 21:31:00,63.5,50.8,29.86,NNW,343,3.0,7.0,63,0.01,,,0.07,WUHU216DAVISVP2,2013-09-23 01:31:00,
2013-09-22 21:36:00,63.4,50.7,29.87,NW,306,2.0,7.0,63,0.01,,,0.07,WUHU216DAVISVP2,2013-09-23 01:36:00,
2013-09-22 21:41:00,63.2,51.0,29.87,NNW,342,1.0,7.0,64,0.01,,,0.07,WUHU216DAVISVP2,2013-09-23 01:41:00,
2013-09-22 21:46:00,63.1,50.3,29.87,NNW,343,3.0,5.0,63,0.01,,,0.07,WUHU216DAVISVP2,2013-09-23 01:46:00,
2013-09-22 21:51:00,63.0,50.6,29.87,North,349,2.0,5.0,64,0.00,,,0.07,WUHU216DAVISVP2,2013-09-23 01:51:00,
2013-09-22 21:56:00,62.9,50.5,29.87,North,9,3.0,6.0,64,0.00,,,0.07,WUHU216DAVISVP2,2013-09-23 01:56:00,
2013-09-22 22:01:00,62.9,50.5,29.87,NNW,342,3.0,6.0,64,0.00,,,0.07,WUHU216DAVISVP2,2013-09-23 02:01:00,
2013-09-22 22:06:00,62.8,50.6,29.87,NNW,334,2.0,6.0,64,0.00,,,0.07,WUHU216DAVISVP2,2013-09-23 02:06:00,
2013-09-22 22:11:00,62.7,50.5,29.88,NNW,344,1.0,6.0,64,0.00,,,0.07,WUHU216DAVISVP2,2013-09-23 02:11:00,
2013-09-22 22:16:00,62.6,50.8,29.88,NW,309,1.0,6.0,65,0.00,,,0.07,WUHU216DAVISVP2,2013-09-23 02:16:00,
2013-09-22 22:21:00,62.4,50.6,29.88,WNW,299,0.0,5.0,65,0.00,,,0.07,WUHU216DAVISVP2,2013-09-23 02:21:00,
2013-09-22 22:26:00,62.1,50.8,29.88,NNW,343,2.0,4.0,66,0.00,,,0.07,WUHU216DAVISVP2,2013-09-23 02:26:00,
2013-09-22 22:31:00,62.0,51.1,29.88,North,4,1.0,4.0,67,0.00,,,0.07,WUHU216DAVISVP2,2013-09-23 02:31:00,
2013-09-22 22:36:00,61.8,50.9,29.88,WNW,287,2.0,4.0,67,0.00,,,0.07,WUHU216DAVISVP2,2013-09-23 02:36:00,
2013-09-22 22:41:00,61.7,51.2,29.88,NNW,328,1.0,4.0,68,0.00,,,0.07,WUHU216DAVISVP2,2013-09-23 02:41:00,
2013-09-22 22:46:00,61.5,50.8,29.89,North,354,1.0,4.0,68,0.00,,,0.07,WUHU216DAVISVP2,2013-09-23 02:46:00,
2013-09-22 22:51:00,61.4,51.1,29.89,North,9,1.0,3.0,69,0.00,,,0.07,WUHU216DAVISVP2,2013-09-23 02:51:00,
2013-09-22 22:56:00,61.2,50.9,29.89,North,9,0.0,3.0,69,0.00,,,0.07,WUHU216DAVISVP2,2013-09-23 02:56:00,
2013-09-22 23:01:00,61.0,51.1,29.89,WNW,291,0.0,3.0,70,0.00,,,0.07,WUHU216DAVISVP2,2013-09-23 03:01:00,
2013-09-22 23:06:00,60.8,51.3,29.89,West,272,0.0,3.0,71,0.00,,,0.07,WUHU216DAVISVP2,2013-09-23 03:06:00,
2013-09-22 23:11:00,60.5,51.0,29.89,WNW,296,0.0,3.0,71,0.00,,,0.07,WUHU216DAVISVP2,2013-09-23 03:11:00,
2013-09-22 23:16:00,60.3,51.4,29.89,WNW,299,0.0,3.0,72,0.00,,,0.07,WUHU216DAVISVP2,2013-09-23 03:16:00,
2013-09-22 23:21:00,60.1,51.2,29.90,NNW,334,2.0,4.0,72,0.00,,,0.07,WUHU216DAVISVP2,2013-09-23 03:21:00,
2013-09-22 23:26:00,59.9,51.3,29.89,NNW,334,0.0,4.0,73,0.00,,,0.07,WUHU216DAVISVP2,2013-09-23 03:26:00,
2013-09-22 23:31:00,59.7,51.5,29.89,NNW,337,0.0,4.0,74,0.00,,,0.07,WUHU216DAVISVP2,2013-09-23 03:31:00,
2013-09-22 23:36:00,59.4,51.2,29.89,NNW,335,0.0,4.0,74,0.00,,,0.07,WUHU216DAVISVP2,2013-09-23 03:36:00,
2013-09-22 23:41:00,59.2,51.4,29.89,WNW,290,3.0,3.0,75,0.00,,,0.07,WUHU216DAVISVP2,2013-09-23 03:41:00,
2013-09-22 23:46:00,59.0,51.5,29.89,North,10,1.0,4.0,76,0.00,,,0.07,WUHU216DAVISVP2,2013-09-23 03:46:00,
2013-09-22 23:51:00,58.8,51.3,29.89,NNW,330,1.0,4.0,76,0.00,,,0.07,WUHU216DAVISVP2,2013-09-23 03:51:00,
2013-09-22 23:56:00,58.6,51.5,29.90,NNW,330,2.0,4.0,77,0.00,,,0.07,WUHU216DAVISVP2,2013-09-23 03:56:00,